STARLINK-5114 (54003 NORAD) Tracking and Keplerian Element Data

This shows tracking and keplerian element data for the satellite.

Feedback or suggestion? Click here.




ElementValue
Catalog54003
NameSTARLINK-5114
Epoch Orbit764
Epoch Day325.25001157
Epoch Year2022
RAAN223.8815
Inclination53.2169
Eccentricity0.0001021
Argument of Perigee81.7831
Mean Anonmoly252.0121
Mean Motion15.49858574
Decay Rate0.00028104
L11 54003U 22125AR 22325.25001157 .00028104 00000+0 50181-3 0 9991
L22 54003 53.2169 223.8815 0001021 81.7831 252.0121 15.49858574 7647



Live tracking and technical data element details for STARLINK-5114 (NORAD 54003). STARLINK-5114 can be tracked NOW for your location showing map with azimuth and elevation plus other details from your city location.







IsCatalogInMostPopularTable: catalog: 54003, numindb: 3
Update: records affected: 1



GetName: 54003 STARLINK-5114

Hit Count: updated at: Mon, 28 Nov 2022 21:22:38 GMT